{"data":{"norad_id":68964,"epoch":"2026-05-25T04:00:03.998880Z","epoch_age_seconds":60077,"freshness":"FRESH","line1":"1 68964U 26099P   26145.16671295 -.02023731  00000+0 -19059-1 0  9998","line2":"2 68964  53.1592 269.9443 0000839  75.0434 280.0164 15.69604235  5018","mean_motion":15.69604235,"eccentricity":8.39e-5,"inclination_deg":53.1592,"raan_deg":269.9443,"arg_perigee_deg":75.0434,"mean_anomaly_deg":280.0164,"bstar":-0.019059,"rev_number":501,"period_min":91.742871730975,"perigee_km":359.4640941969,"apogee_km":360.59475852325,"semimajor_km":6738.1664263601,"source":"CELESTRAK","updated_at":"2026-05-25T13:38:22.074510Z"}}